Location: Eppenbrunn
(49.1158°N, 7.5601°E)
Time: 03:23:24
(UTC+00:00)

SPOT 1/Viking Rocket - Pass Details

Date: 09 April 2020
Orbit: 776 x 795 km, 98.5° (Epoch: 04 June)

Event Time Altitude Azimuth Distance (km) Brightness Sun altitude
Exits shadow 19:50:05 23° 109° (ESE) 1,633 4.6 -15.3°
Maximum altitude 19:52:27 34° 64° (ENE) 1,288 4.4 -15.7°
Drops below altitude 10° 19:57:08 10° 1° (N) 2,377 6.5 -16.3°
Sets 19:59:38 0° 352° (N) 3,311 7.4 -16.6°
